Hourly Weather Roundup
Issued by NWS Central Illinois

Home | Current Version | Previous Version | Text Only | Print | Product List | Glossary On
Versions: 1 2 3 4 5 6 7 8 9 10 11 12 13 14 15 16 17 18 19 20 21 22 23 24 25 26 27 28 29 30 31 32 33 34 35 36 37 38 39 40 41 42 43 44 45 46 47 48 49 50
000
NZUS43 KILX 250310
HWRILX

AREA WEATHER ROUNDUP
NATIONAL WEATHER SERVICE, LINCOLN IL
1000 PM CDT FRI MAR 24 2017


CITY           SKY/WX    TMP DP  RH WIND       PRES   REMARKS
BLOOMINGTON    CLOUDY    63  49  60 NW8       30.02R
CHAMPAIGN      CLOUDY    66  54  65 S14       30.02S
DECATUR        CLOUDY    66  55  67 S13       30.01S
EFFINGHAM      PTCLDY    65  56  73 SE9       30.05S
FLORA          MOCLDY    64  56  75 SE8       30.04F
GALESBURG      RAIN      54  54 100 E5        29.99S
JACKSONVILLE   CLOUDY    58  53  80 NE8       29.96F
LACON          MOCLDY    59  52  77 N7        29.98F
LAWRENCEVILLE  PTCLDY    60  52  74 S9        30.08F
LITCHFIELD     MOCLDY    66  57  72 SE14G21   29.99S
$$


CITY           SKY/WX    TMP DP  RH WIND       PRES   REMARKS
LINCOLN        CLOUDY    64  51  64 E5        29.99F
MACOMB         CLOUDY    55  54  99 CALM      30.01S FOG
MATTOON        PTCLDY    65  56  72 S9        30.02F
MT CARMEL AP   MOCLDY    61  51  70 SE7       30.07F
OLNEY-NOBLE AP PTCLDY    63  55  77 SE8       30.05F
PARIS          CLOUDY    63  55  76 S10       30.05F
PEORIA         PTCLDY    61  53  75 NE5       29.99R
PONTIAC        MOCLDY    62  50  63 W3        30.01R
RANTOUL        CLOUDY    67  57  71 S12       30.01F
SPRINGFIELD    CLOUDY    63  51  65 NE7       29.98F
TAYLORVILLE    CLOUDY    64  55  72 SE13      30.00S
$$

...REGIONAL REPORTS...


CITY           SKY/WX    TMP DP  RH WIND       PRES   REMARKS
CHICAGO O`HARE CLOUDY    43  36  76 N16       30.07R
KANKAKEE       MOCLDY    51  41  69 NE12      30.02R
MOLINE         LGT RAIN  56  54  93 E7        29.99R FOG
MOUNT STERLING CLOUDY    56  53  91 NE6       29.97F
MOUNT VERNON   MOCLDY    65  55  70 SE6       30.03F
PITTSFIELD     CLOUDY    60  55  84 NE7       29.96F
QUINCY         CLOUDY    57  56  96 E5        29.95F
ROCKFORD       LGT RAIN  44  40  85 E10       30.08F FOG
$$


CITY           SKY/WX    TMP DP  RH WIND       PRES   REMARKS
BURLINGTON     CLOUDY    56  56 100 NE7       29.96F FOG
CEDAR RAPIDS   CLOUDY    48  48 100 N13       29.98S FOG
DES MOINES     CLOUDY    45  42  89 NE18      29.98R
KIRKSVILLE     CLOUDY    56  56 100 E6        29.90F
OTTUMWA        LGT RAIN  51  51 100 NE13      29.93F FOG
ST LOUIS       LGT RAIN  69  58  67 SE14      29.96S
$$


CITY           SKY/WX    TMP DP  RH WIND       PRES   REMARKS
TERRE HAUTE    CLOUDY    66  52  60 S10       30.07S
EVANSVILLE     CLOUDY    63  51  65 E3        30.10R
INDIANAPOLIS   CLOUDY    64  52  64 S8        30.08S
LAFAYETTE      CLOUDY    65  55  70 S9        30.04R
MADISON        CLOUDY    38  35  89 NE9       30.11R WCI  31
MILWAUKEE      CLOUDY    38  34  85 N16       30.10R WCI  29
$$






USA.gov is the U.S. government's official web portal to all federal, state and local government web resources and services.